Welcome to the New NWS' Forecast!
Most changes are behind the scenes, but click here for differences you might notice.

Regional Weather Roundup (RWR)

Issued by National Weather Service (NWS)

                            
000
ASUS43 KMPX 230710
RWRMN 
WEATHER ROUNDUP FOR MINNESOTA
NATIONAL WEATHER SERVICE TWIN CITIES/CHANHASSEN MN
200 AM CDT TUE OCT 23 2018


NOTE: "FAIR" INDICATES FEW OR NO CLOUDS BELOW 12,000 FEET WITH NO
SIGNIFICANT WEATHER AND/OR OBSTRUCTIONS TO VISIBILITY. N/A MEANS
CURRENT SKY AND/OR WEATHER CONDITIONS ARE NOT AVAILABLE.

MNZ060>063-068>070-230800-
   Twin Cities Metro   
  
CITY           SKY/WX    TMP DP  RH WIND       PRES   REMARKS
TWIN CITIES    FAIR      38  28  67 NW8       30.28R                  
ST PAUL        FAIR      36  26  67 NW8       30.29R                  
CRYSTAL        FAIR      35  26  69 NW7       30.28R WCI  29          
LAKEVILLE      FAIR      36  30  80 W7        30.27S                  
EDEN PRAIRIE   FAIR      39  27  62 NW8       30.27R                  
SOUTH ST PAUL  FAIR      39  27  60 NW5       30.28R                  
LAKE ELMO      FAIR      36  28  75 NW5       30.28R                  
$$
MNZ001>005-007-008-013>017-022>024-027-028-230800-
   Northwest Minnesota   
  
CITY           SKY/WX    TMP DP  RH WIND       PRES   REMARKS
BEMIDJI        CLOUDY    33  27  79 NW5       30.29R WCI  28          
HALLOCK        FAIR      23  19  86 NW6       30.36S WCI  16          
ROSEAU         CLOUDY    36  27  69 N10       30.32R                  
WARROAD        CLOUDY    34  25  69 NW3       30.32R                  
CROOKSTON      FAIR      23  19  86 N6        30.36R WCI  16          
FOSSTON        FAIR      25  21  86 NW5       30.32R WCI  19          
DETROIT LAKES  FAIR      30  27  86 NW5       30.32S WCI  25          
MOORHEAD       FAIR      27  21  80 CALM      30.37R                  
PARK RAPIDS    FAIR      24  21  88 CALM      30.29R                  
MAHNOMEN       FAIR      24  21  89 W7        30.32R WCI  16          
$$
MNZ006-009>011-018-025>026-230800-
   North Central Minnesota   
  
CITY           SKY/WX    TMP DP  RH WIND       PRES   REMARKS
BAUDETTE       CLOUDY    35  26  69 NW10      30.29R WCI  27          
FLAG ISLAND    CLOUDY    34  27  75 NW14      30.30R WCI  24          
INTL FALLS     CLOUDY    35  33  92 NW6       30.27S WCI  30          
WASKISH        CLOUDY    36  28  75 NW6       30.29R                  
BIG FORK       CLOUDY    37  27  65 CALM      30.26R                  
LONGVILLE      CLOUDY    37  27  65 CALM      30.27S                  
GRAND RAPIDS   CLOUDY    37  27  67 NW9       30.28R                  
CRANE LAKE     CLOUDY    36  30  80 NW5       30.25R                  
ORR            CLOUDY    36  30  80 NW5       30.22R                  
COOK           MOCLDY    36  30  80 NW5       30.24R                  
WALKER         CLOUDY    35  27  72 CALM      30.28R                  
$$
MNZ012-019>021-037-230800-
   Northeast Minnesota   
  
CITY           SKY/WX    TMP DP  RH WIND       PRES   REMARKS
DULUTH         CLOUDY    38  30  73 W7        30.22R                  
ELY            CLOUDY    34  30  86 NW6       30.21R WCI  29          
HIBBING        CLOUDY    37  30  75 NW12      30.23R                  
EVELETH        FAIR      36  32  87 NW5       30.24R                  
DULUTH HARBOR  FAIR      41  36  81 NW13      30.24R                  
TWO HARBORS    FAIR      36  30  80 CALM      30.20R                  
SILVER BAY     FAIR      36  30  80 W3        30.18R                  
GRAND MARAIS     N/A     40  29  64 N17G26    30.13R                  
G MARAIS ARPRT LGT SNOW  34  27  75 NW12G18   30.13R WCI  25          
$$
MNZ029>031-032-039>041-046>048-054>057-064-230800-
   West Central Minnesota   
  
CITY           SKY/WX    TMP DP  RH WIND       PRES   REMARKS
FERGUS FALLS   FAIR      25  21  86 NW7       30.37R WCI  17          
MORRIS         CLOUDY    27  23  86 CALM      30.32S                  
ALEXANDRIA     FAIR      34  25  69 NW6       30.32R WCI  29          
ELBOW LAKE     FAIR      27  25  91 W5        30.33S WCI  22          
WADENA         FAIR      27  23  86 W3        30.31R                  
GLENWOOD       FAIR      30  27  86 N5        30.31S WCI  25          
APPLETON       CLOUDY    27  21  80 NW3       30.34R                  
BENSON         CLOUDY    23  19  86 CALM      30.34R                  
ORTONVILLE     CLOUDY    30  25  80 N6        30.33S WCI  24          
MADISON        CLOUDY    28  25  86 NW5       30.33S WCI  23          
WILLMAR        FAIR      27  23  86 W5        30.34R WCI  21          
$$
MNZ033>034-036-042>043-049>051-058-059-230800-
   Central Minnesota     
  
CITY           SKY/WX    TMP DP  RH WIND       PRES   REMARKS
ST CLOUD       FAIR      31  25  78 NW6       30.29R WCI  25          
SAUK CENTRE    FAIR      27  23  85 CALM      30.31S                  
PAYNESVILLE    FAIR      30  27  86 W3        30.31R                  
AITKIN         CLOUDY    34  27  75 NW3       30.26R                  
PINE RIVER     CLOUDY    34  27  75 CALM      30.31R                  
BRAINERD       CLOUDY    34  26  72 CALM      30.29R                  
STAPLES        FAIR      27  23  86 W5        30.30R WCI  21          
LONG PRAIRIE   FAIR      30  27  86 CALM      30.30S                  
LITTLE FALLS   FAIR      27  23  86 CALM      30.30S                  
LITCHFIELD     FAIR      36  28  75 NW5       30.31R                  
BUFFALO        FAIR      35  26  71 NW3       30.30S                  
MAPLE LAKE     FAIR      35  29  78 NW3       30.30S                  
HUTCHINSON     FAIR      32  27  82 NW6       30.31S WCI  26          
$$
MNZ037-044-045-052-053-230800-
   East Central Minnesota   
  
CITY           SKY/WX    TMP DP  RH WIND       PRES   REMARKS
PRINCETON      FAIR      30  25  80 W3        30.29R                  
MORA           FAIR      30  28  93 CALM      30.28R                  
CAMBRIDGE      FAIR      36  23  60 CALM      30.28R                  
RUSH CITY      FAIR      30  26  84 CALM      30.27R                  
MOOSE LAKE     FAIR      32  27  80 CALM      30.24R                  
HINCKLEY       FAIR      34  28  80 NW3       30.26R                  
CLOQUET        CLOUDY    37  28  70 NW3       30.24R                  
MCGREGOR       CLOUDY    36  30  80 W5        30.27R                  
$$
MNZ071>073-080-081-089-090-097-098-230800-
   Southwest Minnesota   
  
CITY           SKY/WX    TMP DP  RH WIND       PRES   REMARKS
MONTEVIDEO     CLOUDY    34  25  69 NW6       30.33R WCI  29          
GRANITE FALLS  CLOUDY    28  25  89 W7        30.34S WCI  21          
CANBY          CLOUDY    35  29  78 NW5       30.34S WCI  31          
MARSHALL       CLOUDY    30  25  81 NW8       30.33R WCI  22          
REDWOOD FALLS  CLOUDY    34  26  72 NW6       30.31R WCI  29          
OLIVIA         CLOUDY    30  27  86 NW6       30.31R WCI  24          
PIPESTONE      CLOUDY    34  27  75 CALM      30.31R                  
WINDOM         CLEAR     30  25  80 W3        30.30S                  
WORTHINGTON    CLEAR     35  26  69 N9        30.31R WCI  28          
JACKSON        CLEAR     32  27  80 NW3       30.31R                  
TRACY          CLOUDY    36  27  71 NW5       30.31S                  
SLAYTON        CLOUDY    32  18  55 CALM      30.32R                  
$$
MNZ065>067-074>077-082>085-091>093-230800-
   South Central Minnesota  
  
CITY           SKY/WX    TMP DP  RH WIND       PRES   REMARKS
MANKATO        FAIR      35  27  72 N9        30.29R WCI  28          
NEW ULM        CLEAR     36  25  64 NW7       30.30R                  
FAIRMONT       CLEAR     34  26  72 W7        30.30R WCI  28          
GLENCOE        FAIR      35  28  75 NW6       30.29S WCI  30          
OWATONNA       FAIR      30  25  80 CALM      30.27R                  
WASECA         FAIR      34  27  75 NW6       30.28S WCI  29          
ALBERT LEA     FAIR      37  28  70 NW3       30.27R                  
$$
MNZ078>079-086>088-094>096-230800-
   Southeast Minnesota   
  
CITY           SKY/WX    TMP DP  RH WIND       PRES   REMARKS
ROCHESTER      FAIR      34  26  72 W9        30.25R WCI  27          
RED WING       FAIR      39  23  52 NW3       30.25R                  
STANTON        FAIR      33  26  75 CALM      30.26S                  
DODGE CENTER   FAIR      34  25  69 NW5       30.26R WCI  30          
WINONA         FAIR      41  30  65 NW9       30.25R                  
AUSTIN         FAIR      36  27  69 NW5       30.26R                  
PRESTON        FAIR      36  26  66 NW8       30.25R                  
$$
ABBREVIATIONS USED IN REMARKS
   TC - TEMPERATURES IN CELSIUS
  WCI - WIND CHILL INDEX
   HX - HEAT INDEX
  VSB - VISIBILITY 
$$